カタリナ彗星

509P/Catalina (2026)

English version
Home page
Updated on August 27, 2025

---------------------------------------------------------------------

・ プロフィール

符号 509P/2024 T6
検出日 2024年10月23日、10月3日
検出光度 21.7等、21.8等
検出者 Mt. Lemmon, T. Kobayashi, Pan-STARRS 1 telescope (Haleakala)

・ 写真集

・ 軌道要素

Epoch 2025 May 5.0 TT = JDT 2460800.5                                           
T 2026 Mar. 20.22884 TT                                 Pike                    
q   3.6925897            (2000.0)            P               Q                  
n   0.05297047     Peri.  180.15555     -0.09343691     -0.98441388             
a   7.0217738      Node   275.20756     +0.91362976     -0.02530600             
e   0.4741229      Incl.    8.60435     +0.39566426     -0.17403715             
P  18.6                                                                         
From 343 observations 2006 Oct. 19-2025 July 28, mean residual 0".9.            

・ 光度変化

        m1 = 8.5 + 5 logΔ + 15.0 log r

        ※ 灰色の曲線は、m1 = 6.5 + 5 logΔ + 15.0 log r の光度曲線です。

---------------------------------------------------------------------

軌道要素はM.P.E.C. 2025-P121に掲載されたものです。
光度グラフはComet for Windowsで作成したものです。

---------------------------------------------------------------------

Copyright(C) Seiichi Yoshida (comet@aerith.net). All rights reserved.